Weather in Shergino

Russia / Republic of Buryatia     52°06′49″N   106°44′14″E
temp.,
°C
wind,
m/s
gust,
m/s
humid.,
%
clouds,
%
prec.,
mm/h
press.,
hPa
HPBL,
m
10 may, mon
mon1023:00+4nw2495100 1.2 1011260
02:00+4wsw2596100 5.8 1011461
05:00+4w3695100 0.3 1011505
08:00+4w359199 1.1 1012439
11:00+5w4678100 0.5 1013990
14:00+7w466588 0.6 10131154
17:00+5w4779100 0.2 1014780
20:00+4w3688100 0.3 1016660
11 may, tue
tue1123:00+3wsw3696100 0.6 1016532
02:00+2wsw3698100 0.9 1016362
05:00+2wsw3698100 0.1 1017319
08:00+2sw3697100 0.1 1018288
11:00+4wsw469099 0.0 1018458
14:00+6wsw577976 0.1 1017673
17:00+9wsw476963 0.0 1016882
20:00+6sw358153 0.1 1016153
12 may, wed
wed1223:00+4ssw328310 0.0 101634
02:00+3s22835 0.0 101628
05:00+2s22835 0.0 101427
08:00+9wnw14575 0.0 1012573
11:00+12wnw364469 0.1 10101618
14:00+14wnw58405 0.1 10081907
17:00+6nw468458 0.6 1012639
20:00+5nw227935 0.7 101234
13 may, thu
thu1323:00+2wsw1194100 0.1 101416
02:00+1ssw1198100 0.3 101412
05:00+1nnw0098100 0.2 101443
08:00+3nw2384100 0.3 1014519
11:00+6nnw4644100 0.1 10131881
14:00+8n5829100 0.1 10122078
17:00+8nnw5835100 0.0 10121912
20:00+4nw235326 0.0 101473
14 may, fri
fri1423:00+1sw226867 0.0 101624
02:00−1sw348021 0.0 101683
05:000wsw3595100 0.4 1017214
08:00+1wsw3695100 1.9 1018340
11:00+6w5867100 0.9 10161006
14:00+10w694275 1.1 10132189
17:00+10wsw573990 0.0 10121178
20:00+6ssw356182 0.0 101287